User: anonymous   Login
Location: Newark
(47.5333°N, 8.7000°E)
Time: 02:41:20
(UTC+00:00)
Language:

BEESAT 3 - Orbit

View from above orbital plane
View from above orbital plane
View from above satellite
View from above satellite

Ground track
Ground track

The orbit data is extracted from the following two-line orbital elements,

1 39134U 13015E   20329.51818497  .00003990  00000-0  18442-3 0  9992
2 39134  64.8632 118.4184 0018979 221.3862 138.5829 15.21551881420409
Epoch (UTC): 24 November 2020 12:26:11
Eccentricity: 0.0018979
inclination: 64.8632°
perigee height: 488 km
apogee height: 514 km
right ascension of ascending node: 118.4184°
argument of perigee: 221.3862°
revolutions per day: 15.21551881
mean anomaly at epoch: 138.5829°
orbit number at epoch: 42040

The dashed part of the orbit path shows where the satellite is in the earth's shadow,  

DLR